Location: Unspecified
(0.0000°N, 0.0000°E)
Time: 06:28:55
(UTC+00:00)

Envisat - Pass Details

Date: 11 January 2018
Orbit: 764 x 766 km, 98.2° (Epoch: 21 April)

Event Time Altitude Azimuth Distance (km) Brightness Sun altitude
Rises 20:39:56 0° 188° (S) 3,228 6.6 -34.9°
Reaches altitude 10° 20:42:30 10° 199° (SSW) 2,300 5.9 -35.4°
Enters shadow 20:46:40 29° 254° (WSW) 1,378 4.7 -36.4°
